Regional Weather Roundup
Issued by NWS Green Bay, WI

Home | Current Version | Previous Version | Graphics & Text | Print | Product List | Glossary Off
Versions: 1 2 3 4 5 6 7 8 9 10 11 12 13 14 15 16 17 18 19 20 21 22 23 24 25 26 27 28 29 30 31 32 33 34 35 36 37 38 39 40 41 42 43 44 45 46 47 48 49 50

000
ASUS43 KGRB 210110
RWRGRB

NORTH-CENTRAL AND NORTHEAST WISCONSIN REGIONAL WEATHER ROUNDUP
NATIONAL WEATHER SERVICE GREEN BAY WI
800 PM CDT MON APR 20 2015

WIZ005-009-010>012-018-019-210200-
NORTH CENTRAL WISCONSIN

CITY           SKY/WX    TMP DP  RH WIND       PRES   REMARKS
IRONWOOD       CLOUDY    36  27  69 W14G22    29.33S
MANITOWISH WTR CLOUDY    34  28  80 W10G17    29.35S
ARBOR VITAE    CLOUDY    37  31  79 W9        29.36R
EAGLE RIVER    LGT SNOW  34  29  85 W10G18    29.34R
LAND O LAKES   LGT SNOW  33  32  96 W8G17     29.34R
RHINELANDER    LGT SNOW  34  30  85 W12       29.37R FOG
PHILLIPS       CLOUDY    35  27  73 W9        29.38S
ANTIGO         CLOUDY    36  30  79 W14G20    29.39S
TOMAHAWK       CLOUDY    36  28  74 W13G20    29.39R
MERRILL        CLOUDY    37  30  74 W12       29.40S
$$

WIZ013-073-210200-
NORTHEAST WISCONSIN

CITY           SKY/WX    TMP DP  RH WIND       PRES   REMARKS
IRON MOUNTAIN  CLOUDY    38  31  76 W10G17    29.32R
MARINETTE      MOCLDY    39  34  81 W13G21    29.38R
OCONTO         CLOUDY    40  32  73 W18G29    29.41R
$$

WIZ017-030-035>037-045-210200-
CENTRAL WISCONSIN

CITY           SKY/WX    TMP DP  RH WIND       PRES   REMARKS
MEDFORD        CLOUDY    36  28  72 W18G29    29.42R
WAUSAU         CLOUDY    38  28  67 W16G23    29.41R
MOSINEE        CLOUDY    37  30  75 W10G20    29.44S
MARSHFIELD     CLOUDY    39  28  64 W16G22    29.44S
WISC RAPIDS    CLOUDY    40  28  62 W7        29.48R
STEVENS POINT  CLOUDY    37  28  69 W10       29.46R
WAUPACA        CLOUDY    41  30  64 W14G22    29.47R
SHAWANO        CLOUDY    41  32  70 W10G22    29.43R
CLINTONVILLE   CLOUDY    39  32  75 W9        29.44R
$$

WIZ038-039-048-051-210200-
FOX VALLEY

CITY           SKY/WX    TMP DP  RH WIND       PRES   REMARKS
NWS GREEN BAY  CLOUDY    41  34  76 W15       29.45R
APPLETON       CLOUDY    39  30  70 W18G25    29.46R
OSHKOSH        CLOUDY    41  31  67 W8G20     29.47R
FOND DU LAC    CLOUDY    41  31  67 W13       29.49R
$$

WIZ022-050-052-210200-
EAST CENTRAL WISCONSIN

CITY           SKY/WX    TMP DP  RH WIND       PRES   REMARKS
STURGEON BAY   CLOUDY    41  30  65 W16G26    29.41R
MANITOWOC      CLOUDY    42  34  73 W16G30    29.45R
SHEBOYGAN      CLOUDY    41  32  70 W20G25    29.47R
$$

LMZ563-521-522-541>543-210200-
LAKESHORE

STATION/POSITION TIME  TEMP    WIND        PRES    VSBY  WAVE
                       AIR SEA DIR/SP/G                  HT/PER
                 (UTC) (F)     (DEG/KT/KT) (MB)    (MI)  (FT/S)
SHEBOYGAN LKSHOR 0100   43     260/ 15/ 20  998.6R
KEWAUNEE LKSHORE 0100   42     270/ 15/ 24  995.6R
NORTHPORT PIER   0100   40     260/  5/ 10  994.9R
SISTER BAY LKSHO 0000   39     270/ 13/ 16   N/A
CHAMBERS ISLAND  0100   40     230/  5/  8  994.9R
MENOMINEE LKSHOR 0100   41     250/ 17/ 25  995.9R
$$



USA.gov is the U.S. government's official web portal to all federal, state and local government web resources and services.